EW0611 Weather Reports


Display with metric or nautical units.
time (UTC)temp
F
wind
direction
speed
MPH
gust
MPH
rain 1hr
in
rain 24hr
in
rain mn
in
humidity
%
barometer
mb
20260510152516 79 248 1.0 2.0 0.00 0.00 0.00 55 1016.8
20260510151516 79 0.0 1.0 0.00 0.00 0.00 55 1016.6
20260510150516 79 0.0 1.0 0.00 0.00 0.00 59 1016.7
20260510145516 78 0.0 1.0 0.00 0.00 0.00 60 1016.5
20260510144537 77 0.0 1.0 0.00 0.00 0.00 65 1016.6
20260510143536 76 0.0 1.0 0.00 0.00 0.00 69 1016.4
20260510142536 75 0.0 2.0 0.00 0.00 0.00 70 1016.4
20260510141516 74 0.0 1.0 0.00 0.00 0.00 75 1016.4
20260510140516 73 0.0 1.0 0.00 0.00 0.00 76 1016.5
20260510135516 72 0.0 1.0 0.00 0.00 0.00 80 1016.4
20260510134516 71 0.0 2.0 0.00 0.00 0.00 83 1016.4
20260510133516 70 0.0 1.0 0.00 0.00 0.00 85 1016.5
20260510132516 69 0.0 1.0 0.00 0.00 0.00 87 1016.6
20260510131515 68 0.0 1.0 0.00 0.00 0.00 91 1016.4
20260510130516 66 0.0 2.0 0.00 0.00 0.00 91 1016.2
20260510125516 64 0.0 1.0 0.00 0.00 0.00 90 1016.0
20260510124515 63 0.0 0.0 0.00 0.00 0.00 90 1015.8
20260510123516 62 0.0 0.0 0.00 0.00 0.00 90 1015.8
20260510122535 61 0.0 0.0 0.00 0.00 0.00 90 1015.7
20260510121536 60 0.0 0.0 0.00 0.00 0.00 90 1015.7
20260510120516 59 0.0 0.0 0.00 0.00 0.00 90 1015.5
20260510115515 59 0.0 0.0 0.00 0.00 0.00 90 1015.5
20260510114515 59 0.0 0.0 0.00 0.00 0.00 90 1015.4
20260510113515 59 0.0 0.0 0.00 0.00 0.00 90 1015.4
20260510112516 58 0.0 0.0 0.00 0.00 0.00 90 1015.2
20260510111536 58 0.0 0.0 0.00 0.00 0.00 90 1015.0
20260510110536 58 0.0 0.0 0.00 0.00 0.00 90 1014.8
20260510105515 58 0.0 0.0 0.00 0.00 0.00 91 1014.6
20260510104515 58 0.0 0.0 0.00 0.00 0.00 91 1014.5
20260510103515 58 0.0 0.0 0.00 0.00 0.00 91 1014.3
20260510102516 58 0.0 0.0 0.00 0.00 0.00 91 1014.0
20260510101515 58 0.0 0.0 0.00 0.00 0.00 91 1014.1
20260510100516 58 0.0 0.0 0.00 0.00 0.00 91 1013.9
20260510095515 58 0.0 0.0 0.00 0.00 0.00 91 1013.7
20260510094515 58 0.0 0.0 0.00 0.00 0.00 91 1013.7
20260510093515 58 0.0 0.0 0.00 0.00 0.00 91 1013.6
20260510092515 58 0.0 0.0 0.00 0.00 0.00 91 1013.6
20260510091515 58 0.0 0.0 0.00 0.00 0.00 91 1013.4
20260510090516 58 0.0 0.0 0.00 0.00 0.00 91 1013.3
20260510085515 58 0.0 0.0 0.00 0.00 0.00 91 1013.1
20260510084515 59 0.0 0.0 0.00 0.00 0.00 91 1013.1
20260510083515 59 0.0 0.0 0.00 0.00 0.00 91 1013.2
20260510082515 59 0.0 0.0 0.00 0.00 0.00 91 1013.1
20260510081535 59 0.0 0.0 0.00 0.00 0.00 91 1013.0
20260510080516 59 0.0 0.0 0.00 0.00 0.00 91 1013.1
20260510075515 59 0.0 0.0 0.00 0.00 0.00 91 1013.1
20260510074515 59 0.0 0.0 0.00 0.00 0.00 91 1013.0
20260510073515 59 0.0 0.0 0.00 0.00 0.00 91 1012.9
20260510072515 59 0.0 0.0 0.00 0.00 0.00 91 1012.8
20260510071515 59 0.0 0.0 0.00 0.00 0.00 91 1012.8
20260510070515 59 0.0 0.0 0.00 0.00 0.00 91 1012.7
20260510065515 59 0.0 0.0 0.00 0.00 0.00 91 1012.7
20260510064516 59 0.0 0.0 0.00 0.00 0.00 91 1012.9
20260510063515 59 0.0 0.0 0.00 0.00 0.00 91 1012.7
20260510062535 60 0.0 0.0 0.00 0.00 0.00 91 1012.7
20260510061515 60 0.0 0.0 0.00 0.00 0.00 91 1012.9
20260510060535 60 0.0 0.0 0.00 0.00 0.00 91 1013.1
20260510055515 60 0.0 0.0 0.00 0.00 0.00 91 1013.0
20260510054515 60 0.0 0.0 0.00 0.00 0.00 91 1013.1
20260510053516 60 0.0 0.0 0.00 0.00 0.00 91 1013.2
20260510052517 60 0.0 0.0 0.00 0.00 0.00 91 1013.2
20260510051518 60 0.0 0.0 0.00 0.00 0.00 91 1013.3
20260510050516 60 0.0 0.0 0.00 0.00 0.00 91 1013.4
20260510045516 61 0.0 0.0 0.00 0.00 0.00 91 1013.5
20260510044516 61 0.0 0.0 0.00 0.00 0.00 91 1013.4
20260510043516 61 0.0 0.0 0.00 0.00 0.00 91 1013.3
20260510042516 61 0.0 0.0 0.00 0.00 0.00 91 1013.2
20260510041516 61 0.0 0.0 0.00 0.00 0.00 91 1013.2
20260510040516 62 0.0 0.0 0.00 0.00 0.00 91 1013.3
20260510035516 62 0.0 0.0 0.00 0.00 0.00 91 1013.3
20260510034516 62 0.0 0.0 0.00 0.00 0.00 91 1013.2
20260510033516 62 0.0 0.0 0.00 0.00 0.00 91 1013.1
20260510032537 62 0.0 0.0 0.00 0.00 0.00 91 1013.1
20260510031516 62 0.0 1.0 0.00 0.00 0.00 91 1013.1
20260510030516 62 0.0 0.0 0.00 0.00 0.00 91 1012.9
20260510025516 62 0.0 0.0 0.00 0.00 0.00 91 1012.8
20260510024516 63 0.0 1.0 0.00 0.00 0.00 91 1012.9
20260510023517 63 0.0 0.0 0.00 0.00 0.00 91 1012.9
20260510022536 63 0.0 0.0 0.00 0.00 0.00 91 1012.8
20260510021516 63 0.0 1.0 0.00 0.00 0.00 91 1013.0
20260510020516 63 0.0 0.0 0.00 0.00 0.00 91 1012.7
20260510015516 63 0.0 0.0 0.00 0.00 0.00 90 1012.6
20260510014516 64 0.0 1.0 0.00 0.00 0.00 90 1012.6
20260510013516 64 0.0 0.0 0.00 0.00 0.00 89 1012.3
20260510012536 65 0.0 0.0 0.00 0.00 0.00 89 1012.1
20260510011516 65 0.0 0.0 0.00 0.00 0.00 89 1011.9
20260510010517 66 0.0 0.0 0.00 0.00 0.00 87 1011.9
20260510005516 66 0.0 0.0 0.00 0.00 0.00 87 1011.8
20260510004516 66 0.0 0.0 0.00 0.00 0.00 86 1011.9
20260510003516 67 0.0 0.0 0.00 0.00 0.00 85 1011.9
20260510002516 68 0.0 1.0 0.00 0.00 0.00 84 1011.9
20260510001516 68 0.0 0.0 0.00 0.00 0.00 83 1011.8
20260510000515 69 0.0 0.0 0.00 0.00 0.00 82 1011.6
20260509235516 69 0.0 1.0 0.00 0.00 0.00 81 1011.4
20260509234515 70 0.0 1.0 0.00 0.00 0.00 79 1011.1
20260509233516 70 0.0 1.0 0.00 0.00 0.00 79 1011.1
20260509232536 71 0.0 0.0 0.00 0.00 0.00 77 1011.1
20260509231536 71 0.0 1.0 0.00 0.00 0.00 76 1011.0
20260509230516 72 0.0 0.0 0.00 0.00 0.00 75 1010.9
20260509225516 72 0.0 2.0 0.00 0.00 0.00 74 1010.7
20260509224536 72 0.0 1.0 0.00 0.00 0.00 73 1010.8
20260509223516 73 0.0 2.0 0.00 0.00 0.00 72 1010.9
20260509222516 73 0.0 2.0 0.00 0.00 0.00 72 1011.0
20260509221515 73 338 1.0 2.0 0.00 0.00 0.00 71 1010.8
20260509220516 73 113 1.0 2.0 0.00 0.00 0.00 71 1010.9
20260509215536 73 23 1.0 2.0 0.00 0.00 0.00 72 1010.8
20260509214516 73 0.0 3.0 0.00 0.00 0.00 71 1010.9
20260509213516 73 0.0 3.0 0.00 0.00 0.00 71 1010.8
20260509212516 73 0.0 2.0 0.00 0.00 0.00 70 1010.7
20260509211515 73 0.0 1.0 0.00 0.00 0.00 71 1010.5
20260509210515 73 338 1.0 4.0 0.00 0.00 0.00 70 1010.6
20260509205516 73 315 1.0 5.0 0.00 0.00 0.00 70 1010.8
20260509204515 73 270 1.0 3.0 0.00 0.00 0.00 69 1010.7
20260509203515 73 315 1.0 2.0 0.00 0.00 0.00 69 1010.8
20260509202516 74 0.0 2.0 0.00 0.00 0.00 67 1010.6
20260509201515 74 23 1.0 3.0 0.00 0.00 0.00 66 1010.7
20260509200515 74 0.0 2.0 0.00 0.00 0.00 66 1010.9
20260509195516 74 0.0 2.0 0.00 0.00 0.00 65 1011.0
20260509194535 74 0.0 3.0 0.00 0.00 0.00 63 1011.1
20260509193515 74 225 1.0 3.0 0.00 0.00 0.00 63 1011.1
20260509192515 73 0.0 2.0 0.00 0.00 0.00 64 1011.3
20260509191535 74 248 1.0 3.0 0.00 0.00 0.00 62 1011.4
20260509190516 74 90 1.0 3.0 0.00 0.00 0.00 60 1011.6
20260509185535 76 0.0 2.0 0.00 0.00 0.00 59 1011.5
20260509184515 77 315 1.0 2.0 0.00 0.00 0.00 57 1011.4
20260509183515 77 248 1.0 2.0 0.00 0.00 0.00 57 1011.4
20260509182535 77 270 1.0 3.0 0.00 0.00 0.00 56 1011.4
20260509181515 76 270 1.0 5.0 0.00 0.00 0.00 57 1011.6
20260509180515 76 248 2.0 8.0 0.00 0.00 0.00 57 1012.0
20260509175536 75 270 1.0 3.0 0.00 0.00 0.00 57 1012.0
20260509174515 75 0.0 3.0 0.00 0.00 0.00 60 1012.1
20260509173515 74 248 1.0 4.0 0.00 0.00 0.00 60 1012.3
20260509172515 74 315 1.0 5.0 0.00 0.00 0.00 61 1012.3
20260509171535 74 293 1.0 2.0 0.00 0.00 0.00 64 1012.5
20260509170516 73 293 1.0 4.0 0.00 0.00 0.00 64 1012.6
20260509165515 73 270 1.0 3.0 0.00 0.00 0.00 65 1012.9
20260509164515 73 0 1.0 2.0 0.00 0.00 0.00 65 1012.8
20260509163515 73 270 1.0 4.0 0.00 0.00 0.00 64 1012.7
20260509162515 72 293 1.0 2.0 0.00 0.00 0.00 65 1012.9
20260509161515 73 315 1.0 3.0 0.00 0.00 0.00 64 1012.9
20260509160516 74 23 1.0 5.0 0.00 0.00 0.00 63 1013.0
20260509155515 74 270 1.0 5.0 0.00 0.00 0.00 61 1013.2
20260509154515 74 225 1.0 4.0 0.00 0.00 0.00 62 1013.2
20260509153515 73 248 1.0 3.0 0.00 0.00 0.00 65 1012.7